Wind_Speed
6 4 4 4 4 4 5 5 5 5 4 4 4 4 4 4 4 4 4 3 3 3 4 4 5 5 6 6 6 6 8 9 10 10 10 11 11 11 11 12 11 11 12
8 6 6 5 5 5 6 6 6 6 5 4 5 6 6 5 4 3 3 3 4 4 3 4 5 5 5 6 6 6 7 8 9 10 11 11 12 13 12 12 12 12 12
9 8 7 6 6 5 5 5 6 6 6 5 6 6 6 5 4 4 3 3 4 4 5 5 6 6 6 6 7 7 8 8 9 10 10 11 12 13 13 13 13 13 12
8 8 7 6 5 5 5 6 5 6 6 6 6 5 5 5 5 5 4 5 5 5 6 7 7 7 7 7 8 8 9 9 9 10 11 11 12 13 13 13 13 13 13
9 8 7 6 6 6 6 6 6 6 6 6 6 5 5 5 6 5 5 5 6 6 7 8 8 8 8 9 8 9 9 10 10 10 10 10 11 12 12 12 13 14 13
9 9 8 7 7 7 7 7 7 7 7 7 6 5 5 6 6 6 6 6 7 8 8 8 8 9 10 10 10 10 11 11 11 11 10 10 11 12 12 13 13 14 14
9 9 8 8 8 8 8 8 8 7 7 7 6 6 6 6 7 7 7 8 8 8 9 9 10 10 11 11 11 12 12 12 12 12 11 12 12 13 13 14 15 15 15
10 10 9 9 9 9 9 9 8 8 8 7 7 7 7 8 8 8 9 9 9 9 10 10 11 11 11 12 12 12 12 13 13 13 13 13 13 14 15 15 15 15 15
10 10 10 9 9 9 9 9 9 8 8 8 8 8 8 9 9 10 10 10 11 11 12 12 11 12 12 12 13 13 13 14 14 15 15 15 15 16 17 16 16 16 15
11 11 11 11 10 10 9 10 9 9 9 9 9 10 11 11 11 12 11 11 12 12 13 13 13 14 14 14 14 14 15 15 16 16 15 15 16 15 16 15 15 16 17
12 12 12 12 11 11 11 11 10 10 10 10 11 11 12 12 13 13 13 13 14 14 15 15 15 15 16 15 15 15 16 17 17 17 16 16 15 15 15 15 15 16 17
13 13 13 12 12 12 12 12 12 11 12 12 12 12 13 13 13 14 15 15 15 16 17 17 17 17 17 17 17 17 17 18 18 18 18 17 16 16 16 16 17 17 18
14 14 14 14 13 13 13 13 13 13 13 13 13 14 15 15 15 16 16 16 17 17 18 18 19 19 19 19 19 19 19 19 19 19 19 18 18 17 17 18 18 18 19
15 15 15 14 14 14 14 14 14 15 14 15 15 16 17 17 17 18 18 19 19 19 20 20 20 20 21 21 21 21 20 20 19 20 20 19 19 19 19 19 19 20 20
17 17 16 15 15 15 15 16 16 16 16 17 17 18 18 19 20 20 21 21 21 21 22 22 22 22 22 23 23 23 22 21 20 20 20 21 21 21 21 22 22 21 21
18 17 17 17 17 17 17 17 18 18 18 18 19 19 20 20 21 22 22 22 23 23 23 23 23 24 23 23 24 24 23 23 23 23 23 23 23 23 23 23 24 23 23
19 18 18 19 19 19 19 19 19 19 20 20 20 21 21 22 23 23 24 24 24 24 24 24 25 25 25 25 24 25 25 25 25 25 24 24 24 24 24 25 25 25 24
20 20 20 20 21 21 20 20 21 21 21 21 22 22 23 24 24 25 25 25 25 25 25 26 26 26 26 26 26 26 25 26 26 25 25 24 24 24 24 24 25 24 24
21 21 21 22 22 21 21 22 23 23 23 23 24 24 24 25 25 26 26 26 27 27 27 27 27 28 28 28 27 27 27 26 27 26 26 25 25 25 24 24 25 25 25
23 23 23 23 22 22 23 24 25 25 25 26 26 26 27 27 27 27 27 28 28 28 28 28 28 27 27 28 28 28 28 27 27 27 27 26 26 25 25 24 24 24 25
25 25 25 25 24 25 26 26 27 27 27 28 28 28 28 28 28 29 29 29 29 29 29 29 29 28 27 28 28 29 29 28 28 28 27 27 27 26 25 25 24 24 24
27 27 26 26 26 27 28 29 29 29 29 29 29 29 30 29 30 30 30 30 31 30 30 30 30 29 29 29 29 30 30 29 29 28 28 27 26 26 26 26 25 25 25
28 27 28 28 29 29 30 31 31 30 29 29 30 30 30 30 30 31 31 32 31 31 31 31 31 30 30 30 30 30 30 29 29 28 28 27 26 25 25 25 26 26 26
28 28 29 30 30 30 31 31 31 31 30 31 31 31 31 31 31 31 31 31 31 31 31 31 31 31 31 31 30 30 30 28 28 28 28 27 26 25 24 24 25 27 27
29 29 29 30 30 31 30 30 30 31 31 32 32 32 32 32 31 31 31 31 31 31 31 31 31 31 31 30 29 29 28 28 27 27 26 26 25 25 24 24 25 26 27
31 31 31 31 30 30 30 30 31 31 32 32 33 33 33 32 32 31 31 31 31 31 31 30 30 30 30 29 29 28 28 28 27 26 25 26 24 24 23 23 24 25 25
Wind_Direction
23 18 24 29 29 25 20 28 27 24 6 343 349 353 356 350 339 351 5 345 319 308 308 300 297 300 296 299 300 280 276 270 264 264 263 262 259 260 258 256 258 262 263
33 31 28 28 29 32 34 31 22 20 6 346 354 2 1 8 2 3 350 334 333 330 329 322 312 313 307 305 304 297 291 278 270 269 268 266 264 263 260 256 258 262 263
33 30 27 29 31 30 31 28 20 15 3 357 2 6 2 5 4 358 1 343 333 334 326 318 313 306 304 299 296 298 295 290 281 277 274 269 264 263 262 261 260 263 263
22 20 24 24 20 17 17 15 6 7 1 359 5 10 13 8 0 358 357 345 334 329 321 313 307 302 298 296 293 293 296 295 293 286 277 273 268 264 264 264 261 262 264
24 22 19 14 8 7 5 3 355 354 351 352 359 5 5 5 359 350 342 335 327 320 320 314 306 303 300 298 297 297 302 297 292 291 281 277 271 266 266 266 265 264 264
20 18 13 8 2 358 354 350 346 343 339 339 345 352 344 352 348 346 338 328 322 318 319 314 311 304 301 297 296 297 301 300 296 292 285 278 276 270 266 267 268 267 266
13 10 7 4 2 359 356 348 340 331 328 327 330 334 332 337 338 339 334 326 319 319 319 316 313 308 302 298 297 298 299 297 297 294 288 282 281 275 272 270 266 267 267
4 359 357 354 353 350 349 347 342 336 332 332 331 329 331 328 331 328 328 327 325 321 312 311 311 309 306 303 300 298 298 296 293 292 289 288 288 284 278 274 267 265 266
355 352 350 346 342 342 345 343 338 332 329 328 326 323 321 322 323 321 322 321 320 316 311 308 306 307 307 308 304 300 298 298 296 296 292 290 288 286 282 275 269 265 265
348 346 345 342 337 335 333 331 333 332 329 325 319 316 313 313 316 319 315 315 316 316 310 306 306 305 302 300 299 296 296 296 296 295 292 290 287 285 281 272 266 265 264
342 339 337 337 333 331 328 325 326 325 325 320 315 314 314 311 311 312 311 310 311 309 307 306 305 305 302 299 299 297 297 295 294 292 289 288 285 282 279 275 275 269 267
338 336 332 329 328 328 327 326 324 319 317 317 314 312 312 308 308 308 308 307 306 304 302 304 302 301 300 297 297 297 296 295 293 291 289 286 284 281 279 276 275 272 269
333 332 332 329 323 322 322 322 319 314 313 313 313 312 310 306 305 306 307 304 303 302 301 301 299 299 297 296 295 293 293 293 292 290 289 288 284 281 279 279 276 274 272
326 325 325 326 326 321 318 317 315 314 312 310 311 311 309 306 305 305 306 303 303 301 300 299 298 299 298 296 294 294 290 291 290 289 289 288 286 283 280 278 276 275 274
321 321 320 319 319 318 317 315 313 312 310 309 308 308 309 306 303 302 303 302 301 300 299 298 298 298 297 295 294 293 292 291 291 290 289 287 287 284 282 278 276 277 276
318 317 316 315 314 313 314 313 311 309 309 307 306 306 307 306 304 302 302 302 301 299 296 295 297 297 297 297 295 292 291 292 292 292 291 288 285 284 282 281 279 278 277
316 315 314 313 311 310 310 311 311 308 307 305 304 303 303 303 303 303 302 301 300 300 299 297 296 296 297 296 296 293 292 292 290 290 289 286 282 281 280 280 281 277 277
312 311 310 310 309 307 307 308 307 306 306 305 303 303 303 301 301 301 301 300 299 300 299 297 296 295 294 296 294 292 290 290 289 288 288 287 284 282 281 281 279 278 277
307 307 307 308 308 305 304 304 305 305 304 304 303 302 302 301 300 300 301 301 300 299 299 298 296 295 294 293 293 293 293 293 290 289 288 286 286 284 282 283 280 279 277
303 303 304 304 304 302 302 303 304 304 304 304 304 302 301 301 301 300 301 301 300 299 298 297 296 294 293 292 292 293 293 292 292 290 288 286 285 284 282 281 279 278 276
302 302 302 303 302 302 301 301 302 302 303 303 303 302 301 300 300 301 300 300 300 298 297 297 296 295 294 293 292 291 291 290 292 291 288 286 284 283 280 279 279 277 277
302 302 303 302 301 300 300 300 299 299 301 301 301 300 300 298 299 299 300 300 299 298 297 297 298 297 295 294 292 292 291 291 292 291 289 286 284 281 278 277 277 277 277
300 300 301 301 300 300 301 300 300 299 300 300 300 299 298 298 298 298 298 299 300 298 296 297 297 297 297 296 294 293 292 292 291 291 290 289 284 281 278 276 276 276 276
300 300 299 299 299 299 300 302 301 300 300 300 300 299 298 297 297 298 299 299 299 298 296 297 297 296 297 297 295 292 291 290 291 291 292 290 286 282 278 277 275 275 276
300 299 300 300 300 300 301 302 301 301 301 301 302 301 300 299 299 299 300 300 299 298 296 296 296 296 296 295 295 291 290 291 291 291 291 290 287 283 280 277 277 277 276
299 300 300 300 300 301 301 302 302 301 302 302 302 302 302 301 301 301 300 300 299 297 296 296 296 296 296 295 293 291 289 290 290 290 290 290 288 286 284 282 281 280 279
Height
5870 5870 5870 5869 5869 5868 5868 5868 5868 5868 5868 5867 5867 5866 5866 5866 5865 5864 5864 5864 5864 5864 5865 5865 5865 5865 5866 5866 5865 5865 5865 5865 5865 5865 5866 5866 5866 5867 5867 5868 5869 5870 5870
5872 5871 5871 5870 5870 5870 5869 5869 5869 5868 5868 5867 5867 5866 5866 5866 5866 5865 5865 5864 5864 5864 5864 5864 5864 5864 5864 5864 5863 5863 5863 5862 5863 5863 5863 5863 5864 5864 5865 5866 5866 5867 5867
5873 5873 5872 5872 5871 5871 5870 5870 5870 5869 5868 5868 5867 5866 5866 5866 5866 5865 5865 5864 5864 5864 5864 5863 5863 5863 5863 5862 5861 5861 5861 5860 5860 5860 5860 5860 5861 5861 5862 5863 5863 5864 5864
5875 5874 5874 5873 5872 5872 5871 5871 5870 5870 5869 5868 5867 5867 5866 5866 5866 5865 5864 5864 5864 5864 5863 5863 5862 5862 5861 5860 5860 5859 5859 5859 5858 5858 5858 5858 5858 5859 5859 5860 5860 5861 5861
5876 5875 5875 5874 5873 5872 5872 5871 5870 5870 5869 5869 5867 5867 5866 5866 5866 5865 5864 5864 5863 5863 5862 5862 5861 5860 5860 5859 5858 5857 5857 5856 5856 5855 5855 5855 5855 5856 5856 5856 5856 5857 5857
5877 5877 5876 5875 5874 5873 5872 5871 5870 5870 5869 5868 5868 5867 5866 5866 5865 5864 5864 5863 5862 5862 5861 5860 5859 5858 5858 5857 5856 5855 5855 5854 5853 5853 5852 5852 5852 5852 5852 5853 5853 5853 5854
5879 5878 5876 5875 5874 5873 5872 5871 5870 5869 5869 5868 5867 5867 5866 5865 5864 5863 5863 5862 5861 5860 5860 5859 5857 5856 5856 5855 5854 5853 5852 5851 5851 5850 5850 5849 5849 5849 5849 5849 5849 5850 5850
5879 5878 5877 5875 5874 5873 5872 5871 5870 5869 5868 5867 5867 5866 5865 5865 5863 5862 5862 5861 5859 5858 5858 5856 5856 5854 5853 5852 5851 5850 5850 5849 5848 5847 5847 5846 5845 5845 5845 5845 5845 5845 5846
5879 5878 5876 5875 5874 5873 5872 5871 5869 5868 5868 5867 5866 5865 5864 5863 5862 5861 5860 5859 5857 5856 5855 5854 5853 5852 5850 5849 5848 5847 5846 5845 5844 5843 5843 5842 5842 5841 5840 5839 5840 5840 5841
5879 5878 5876 5875 5874 5873 5871 5870 5869 5868 5867 5866 5864 5863 5862 5861 5860 5860 5858 5857 5856 5854 5853 5851 5849 5849 5847 5846 5845 5843 5842 5841 5840 5839 5838 5838 5837 5835 5834 5833 5835 5836 5836
5878 5877 5876 5874 5873 5872 5870 5869 5868 5867 5865 5864 5863 5862 5860 5859 5858 5857 5856 5854 5853 5851 5849 5848 5847 5846 5844 5842 5841 5839 5839 5837 5836 5834 5834 5833 5832 5831 5829 5829 5830 5831 5832
5878 5876 5875 5873 5872 5870 5869 5868 5866 5865 5864 5862 5861 5859 5858 5857 5855 5854 5853 5851 5849 5848 5846 5844 5843 5842 5840 5839 5837 5836 5834 5833 5831 5830 5829 5828 5827 5826 5826 5825 5826 5826 5826
5877 5875 5873 5872 5870 5869 5867 5866 5864 5863 5862 5860 5859 5857 5855 5854 5852 5850 5849 5848 5846 5844 5842 5840 5838 5837 5836 5834 5833 5831 5829 5827 5826 5824 5823 5822 5821 5821 5821 5820 5820 5820 5821
5876 5874 5872 5870 5869 5867 5865 5863 5862 5860 5859 5857 5856 5854 5852 5850 5848 5847 5845 5843 5842 5840 5838 5836 5834 5832 5830 5829 5827 5826 5824 5823 5821 5819 5818 5817 5816 5816 5815 5815 5815 5814 5814
5873 5872 5870 5868 5866 5864 5863 5861 5859 5857 5856 5854 5852 5850 5848 5846 5845 5842 5840 5839 5837 5835 5834 5831 5829 5827 5825 5823 5822 5820 5818 5817 5815 5814 5812 5811 5810 5810 5809 5809 5808 5808 5808
5870 5869 5867 5865 5863 5862 5860 5858 5856 5854 5852 5850 5848 5846 5844 5842 5840 5838 5835 5833 5831 5829 5828 5826 5824 5821 5819 5817 5816 5814 5812 5811 5809 5808 5806 5805 5804 5803 5802 5802 5801 5801 5801
5867 5865 5864 5862 5860 5858 5856 5854 5852 5850 5848 5846 5844 5842 5839 5837 5835 5832 5830 5828 5825 5823 5821 5820 5818 5815 5813 5811 5809 5807 5806 5804 5802 5800 5799 5798 5797 5796 5795 5794 5793 5793 5793
5864 5862 5860 5858 5856 5854 5852 5850 5848 5846 5843 5841 5839 5837 5834 5832 5829 5827 5824 5822 5819 5817 5815 5813 5811 5808 5806 5803 5802 5800 5798 5796 5794 5793 5792 5790 5789 5788 5787 5786 5786 5785 5785
5860 5858 5856 5854 5851 5849 5848 5846 5844 5841 5838 5836 5834 5831 5828 5826 5823 5821 5818 5816 5813 5811 5808 5806 5804 5801 5799 5797 5794 5793 5791 5789 5787 5785 5784 5783 5781 5780 5779 5778 5778 5778 5777
5855 5853 5851 5849 5847 5844 5842 5840 5838 5835 5833 5830 5828 5825 5822 5820 5817 5814 5812 5809 5806 5804 5801 5798 5796 5794 5792 5789 5787 5785 5783 5781 5780 5777 5776 5774 5773 5772 5771 5771 5770 5769 5769
5849 5847 5845 5843 5841 5839 5836 5834 5831 5829 5826 5824 5821 5818 5815 5813 5810 5807 5805 5802 5799 5796 5794 5791 5788 5786 5784 5781 5779 5777 5775 5773 5772 5770 5768 5766 5765 5764 5763 5762 5762 5761 5761
5844 5841 5839 5837 5834 5832 5829 5827 5824 5822 5819 5817 5814 5811 5808 5805 5802 5800 5797 5794 5791 5789 5786 5783 5781 5778 5776 5773 5771 5768 5766 5765 5764 5762 5760 5759 5757 5756 5755 5754 5754 5753 5753
5837 5835 5832 5830 5827 5825 5822 5819 5816 5814 5812 5809 5806 5803 5801 5798 5795 5792 5789 5786 5783 5780 5778 5775 5773 5770 5768 5765 5762 5760 5758 5756 5755 5753 5751 5750 5748 5748 5747 5746 5745 5745 5744
5830 5828 5825 5822 5820 5817 5814 5811 5808 5806 5804 5801 5798 5796 5793 5790 5787 5784 5781 5778 5775 5772 5769 5767 5764 5762 5759 5756 5754 5752 5749 5748 5747 5744 5743 5741 5740 5739 5738 5737 5737 5736 5735
5823 5820 5818 5815 5812 5810 5807 5804 5801 5799 5796 5794 5790 5787 5784 5782 5779 5775 5773 5770 5767 5764 5761 5758 5756 5753 5751 5748 5745 5743 5741 5740 5739 5737 5735 5733 5732 5731 5730 5729 5729 5727 5726
5816 5813 5810 5808 5805 5802 5800 5797 5794 5791 5789 5786 5782 5779 5776 5773 5770 5767 5764 5761 5759 5756 5753 5750 5748 5745 5743 5740 5737 5735 5733 5732 5730 5729 5727 5725 5724 5723 5723 5722 5721 5719 5718